Flag for Venezuela Weather past 2 weeks in Caracas, Venezuela

Now
79 °F

Passing clouds.


Feels Like: 82 °F
Forecast: 67 / 75 °F
Wind: 3 mph from East

Location: Caracas / Maiquetia Aerop. Intl. Simon Bolivar

Current Time: Jul 7, 2015 at 7:44:55 PM

Latest Report: Jul 7, 2015 at 6:30 PM


Visibility: N/A

Pressure: 29.89 "Hg (27.05 "Hg at 875m altitude)

Humidity: 84%

Dew point: 73 °F

Location of CaracasLocation

Historic Weather in Caracas — Graph

°F

Caracas temperature yesterday

Maximum temperature yesterday: 88 °F (at 12:30 PM)
Minimum temperature yesterday: 75 °F (at 3:30 AM)
Average temperature yesterday: 80 °F

Past Weeks' High & Low Weather Summary

 TemperatureHumidityPressure
High88 °F (Jun 26, 10:30 AM)100% (Jun 24, 7:30 AM)29.98 "Hg (Jun 24, 7:30 AM)
Low72 °F (Jul 5, 11:30 PM)62% (Jun 26, 12:30 PM)29.83 "Hg (Jul 3, 4:30 PM)
Average80 °F81%29.92 "Hg
* Reported Jun 22 6:30 PM — Jul 7 6:30 PM, Caracas, Weather by CustomWeather, © 2015

Note: Actual official high and low records may vary slightly from our data, if they occured in-between our weather recording intervals... More about our weather records

Advertising

Caracas weather history for previous 24 hours

 ConditionsComfort  
Time TempWeatherWind HumidityBarometerVisibility
6:30 PM
Tue, Jul 7
79 °FPassing clouds.3 mph84%29.89 "HgN/A
5:30 PM81 °FScattered clouds.2 mph84%29.89 "HgN/A
4:30 PM81 °FScattered clouds.5 mph74%29.89 "HgN/A
3:30 PM84 °FScattered clouds.5 mph74%29.89 "HgN/A
2:30 PM82 °FScattered clouds.3 mph74%29.89 "HgN/A
1:30 PM84 °FScattered clouds.3 mph74%29.92 "HgN/A
12:30 PM84 °FScattered clouds.5 mph74%29.92 "HgN/A
11:30 AM84 °FPassing clouds.3 mph70%29.92 "HgN/A
10:30 AM84 °FScattered clouds.2 mph70%29.92 "HgN/A
9:30 AM84 °FScattered clouds.5 mph79%29.92 "HgN/A
8:30 AM84 °FScattered clouds.2 mph84%29.92 "HgN/A
7:30 AM75 °FScattered clouds.3 mph89%29.89 "HgN/A
6:30 AM75 °FScattered clouds.No wind83%29.89 "HgN/A
5:30 AM73 °FScattered clouds.No wind89%29.89 "HgN/A
4:30 AM73 °FPassing clouds.No wind89%29.86 "HgN/A
3:30 AM73 °FPassing clouds.No wind89%29.86 "HgN/A
2:30 AM73 °FPassing clouds.No wind89%29.89 "HgN/A
1:30 AM73 °FPassing clouds.No wind94%29.89 "HgN/A
12:30 AM75 °FPassing clouds.No wind89%29.89 "HgN/A
11:30 PM
Mon, Jul 6
75 °FPassing clouds.No wind89%29.92 "HgN/A
10:30 PM75 °FPassing clouds.No wind89%29.92 "HgN/A
9:30 PM77 °FPassing clouds.2 mph83%29.92 "HgN/A
8:30 PM84 °FPassing clouds.3 mph66%29.89 "HgN/A
7:30 PM77 °FPassing clouds.3 mph83%29.89 "HgN/A
Weather by CustomWeather, © 2015

See weather overviewHow to use our weather pages